Satellite-Ground Cal/Val Site Overpasses Predictions

Prediction of Satellite NPP Overpassing Cal/Val Site: Antarctic Dome C

Ground Cal/Val Site Location: Latitude: -75.10, Longitude: 123.35; Satellite-Ground Site NADIR distance within 100 km.

Table of predicted overpasses for the next 14.0 days since TLE Epoch: 1/17/2020
Interval Starting Time Ending Time Minimum Distance Time Minimum Distance (km)
1 01/17/2020 14:48:03 01/17/2020 14:48:32 01/17/2020 14:48:18 17.82
2 01/19/2020 07:30:51 01/19/2020 07:31:20 01/19/2020 07:31:06 2.80
3 01/22/2020 14:54:15 01/22/2020 14:54:44 01/22/2020 14:54:29 18.49
4 01/23/2020 14:35:33 01/23/2020 14:35:46 01/23/2020 14:35:40 88.48
5 01/24/2020 07:37:04 01/24/2020 07:37:32 01/24/2020 07:37:18 34.15
6 01/25/2020 07:18:18 01/25/2020 07:18:36 01/25/2020 07:18:27 76.08
7 01/27/2020 15:00:30 01/27/2020 15:00:54 01/27/2020 15:00:42 55.10
8 01/28/2020 14:41:40 01/28/2020 14:42:04 01/28/2020 14:41:52 53.93
9 01/29/2020 07:43:19 01/29/2020 07:43:40 01/29/2020 07:43:29 69.14


NCC Satellite Cal/Val Overpasses Prediction Service
